Date String (YYYY-MM-DD hh:mm:ss) UTC,Instrument flags,Ambient pressure (hPa),Sample flow (lpm),Bypass flow (lpm),Sample temperature (°C),Ambient temperature (°C),ASC tube jacket temperature (°C),LED temperature (°C),Box temperature (°C),Sample RH (%),Span deviation,Mass concentration (μg/m³),Mass concentration (μg/m³),Mass concentration (μg/m³)
DateTimeUTC,F1_M11,P_M11,Q1_M11,Q2_M11,T1_M11,T2_M11,T3_M11,T4_M11,T5_M11,U1_M11,ZSPAN_M11,X2_M11,X0_M11,X1_M11
2022-12-18 12:00:00,,0819.3,5.03,0.00,21.8,20.0,00.0,30.7,23.4,05.4,0000.0,0004.65,0011.54,0003.79
2022-12-18 12:01:00,,0819.2,5.03,0.00,21.7,20.0,00.0,30.7,23.4,05.6,0000.0,0004.56,0011.32,0003.73
2022-12-18 12:02:00,,0819.2,4.96,0.00,21.8,20.8,00.0,30.6,23.6,05.6,0000.0,0004.46,0011.51,0003.65
2022-12-18 12:03:00,,0819.3,5.05,0.00,21.9,21.8,00.0,30.6,23.8,05.7,0000.0,0004.40,0010.88,0003.61
2022-12-18 12:04:00,,0819.2,4.97,0.00,22.0,21.8,00.0,30.7,23.9,05.6,0000.0,0004.35,0011.31,0003.55
2022-12-18 12:05:00,,0819.3,5.03,0.00,22.0,21.3,00.0,30.7,23.8,05.8,0000.0,0004.31,0010.56,0003.52
2022-12-18 12:06:00,,0819.2,4.95,0.00,21.9,20.8,00.0,30.7,23.6,05.4,0000.0,0004.24,0010.40,0003.47
2022-12-18 12:07:00,,0819.2,5.05,0.00,21.9,20.5,00.0,30.7,23.5,05.0,0000.0,0004.04,0009.97,0003.35
2022-12-18 12:08:00,,0819.2,5.01,0.00,21.8,20.3,00.0,30.7,23.4,05.0,0000.0,0003.86,0009.53,0003.23
2022-12-18 12:09:00,,0819.2,4.96,0.00,21.8,20.1,00.0,30.7,23.4,04.9,0000.0,0003.64,0008.87,0003.10
2022-12-18 12:10:00,,0819.2,5.04,0.00,21.7,20.0,00.0,30.7,23.3,04.9,0000.0,0003.55,0008.27,0003.01
2022-12-18 12:11:00,,0819.3,5.02,0.00,21.7,20.3,00.0,30.6,23.4,04.9,0000.0,0003.44,0008.08,0002.92
2022-12-18 12:12:00,,0819.3,4.97,0.00,21.8,21.3,00.0,30.6,23.6,04.8,0000.0,0003.30,0007.85,0002.76
2022-12-18 12:13:00,,0819.3,5.04,0.00,21.9,22.0,00.0,30.6,23.9,04.8,0000.0,0003.18,0007.29,0002.58
2022-12-18 12:14:00,,0819.3,4.97,0.00,22.0,21.7,00.0,30.7,23.8,04.8,0000.0,0003.00,0006.86,0002.38
2022-12-18 12:15:00,,0819.2,5.01,0.00,21.9,21.1,00.0,30.7,23.7,04.6,0000.0,0002.73,0005.35,0002.20
2022-12-18 12:16:00,,0819.1,4.99,0.00,21.9,20.8,00.0,30.7,23.6,04.6,0000.0,0002.31,0004.02,0001.92
2022-12-18 12:17:00,,0819.1,5.03,0.00,21.9,20.5,00.0,30.7,23.5,04.4,0000.0,0002.04,0003.63,0001.66
2022-12-18 12:18:00,,0819.1,5.00,0.00,21.8,20.3,00.0,30.7,23.4,04.5,0000.0,0001.92,0003.50,0001.55
2022-12-18 12:19:00,,0819.1,4.97,0.00,21.8,20.1,00.0,30.7,23.4,04.5,0000.0,0001.89,0003.37,0001.48
2022-12-18 12:20:00,,0819.1,5.03,0.00,21.7,20.0,00.0,30.7,23.4,04.5,0000.0,0001.81,0003.30,0001.39
2022-12-18 12:21:00,,0819.1,5.03,0.00,21.7,19.8,00.0,30.7,23.3,04.4,0000.0,0001.76,0003.31,0001.31
2022-12-18 12:22:00,,0819.1,4.96,0.00,21.7,20.5,00.0,30.6,23.4,04.2,0000.0,0001.70,0003.25,0001.21
2022-12-18 12:23:00,,0819.2,5.04,0.00,21.8,21.6,00.0,30.6,23.7,04.3,0000.0,0001.66,0003.41,0001.14
2022-12-18 12:24:00,,0819.1,4.97,0.00,21.9,21.9,00.0,30.6,23.8,04.2,0000.0,0001.57,0003.72,0001.07
2022-12-18 12:25:00,,0819.1,5.04,0.00,21.9,21.4,00.0,30.7,23.7,04.1,0000.0,0001.44,0003.28,0001.00
2022-12-18 12:26:00,,0819.2,4.96,0.00,21.9,20.8,00.0,30.7,23.6,04.2,0000.0,0001.36,0003.09,0000.94
2022-12-18 12:27:00,,0819.3,5.02,0.00,21.8,20.4,00.0,30.7,23.4,04.5,0000.0,0001.34,0003.06,0000.92
2022-12-18 12:28:00,,0819.3,4.98,0.00,21.8,20.2,00.0,30.7,23.4,05.1,0000.0,0001.42,0003.15,0000.99
2022-12-18 12:29:00,,0819.3,4.98,0.00,21.7,20.1,00.0,30.7,23.3,05.4,0000.0,0001.63,0003.49,0001.12
2022-12-18 12:30:00,,0819.3,5.01,0.00,21.7,20.0,00.0,30.7,23.3,05.6,0000.0,0001.85,0003.90,0001.33
2022-12-18 12:31:00,,0819.3,5.02,0.00,21.7,20.1,00.0,30.6,23.3,05.8,0000.0,0002.25,0004.53,0001.62
2022-12-18 12:32:00,,0819.3,4.96,0.00,21.7,21.2,00.0,30.6,23.6,06.0,0000.0,0002.74,0005.43,0002.01
2022-12-18 12:33:00,,0819.3,5.03,0.00,21.9,22.1,00.0,30.6,23.8,06.0,0000.0,0003.16,0006.37,0002.41
2022-12-18 12:34:00,,0819.3,4.97,0.00,22.0,21.9,00.0,30.6,23.9,06.0,0000.0,0003.44,0007.02,0002.81
2022-12-18 12:35:00,,0819.2,5.03,0.00,22.0,21.5,00.0,30.7,23.8,06.1,0000.0,0003.72,0007.38,0003.13
2022-12-18 12:36:00,,0819.1,4.97,0.00,21.9,21.2,00.0,30.7,23.8,06.1,0000.0,0004.00,0008.04,0003.34
2022-12-18 12:37:00,,0819.1,5.03,0.00,21.9,20.9,00.0,30.7,23.7,06.1,0000.0,0004.27,0008.52,0003.55
2022-12-18 12:38:00,,0819.2,4.95,0.00,21.9,20.8,00.0,30.7,23.7,06.1,0003.1,0004.55,0008.99,0003.78
2022-12-18 12:39:00,,0819.2,5.02,0.00,21.9,20.6,00.0,30.7,23.6,06.1,0004.5,0004.74,0009.29,0003.95
2022-12-18 12:40:00,,0819.3,5.01,0.00,21.9,20.5,00.0,30.7,23.6,06.1,0004.1,0004.91,0009.63,0004.09
2022-12-18 12:41:00,,0819.3,4.97,0.00,21.9,20.4,00.0,30.7,23.6,06.1,0003.9,0005.02,0009.94,0004.16
2022-12-18 12:42:00,,0819.3,5.00,0.00,21.9,20.4,00.0,30.7,23.6,06.2,0003.9,0005.11,0010.28,0004.21
2022-12-18 12:43:00,,0819.2,5.04,0.00,21.9,21.2,00.0,30.7,23.8,06.1,0004.1,0005.07,0010.13,0004.19
2022-12-18 12:44:00,,0819.3,4.98,0.00,22.0,22.2,00.0,30.7,24.0,06.1,0004.3,0005.12,0010.14,0004.17
2022-12-18 12:45:00,,0819.3,5.00,0.00,22.1,22.2,00.0,30.7,24.1,06.1,0004.2,0005.11,0010.32,0004.16
2022-12-18 12:46:00,,0819.3,5.00,0.00,22.1,21.8,00.0,30.8,24.0,06.1,0003.8,0005.10,0010.54,0004.17
2022-12-18 12:47:00,,0819.4,4.99,0.00,22.1,21.5,00.0,30.8,23.9,06.0,0002.4,0005.06,0010.80,0004.16
2022-12-18 12:48:00,,0819.3,5.01,0.00,22.1,21.2,00.0,30.8,23.9,06.0,0000.0,0005.08,0011.10,0004.15
2022-12-18 12:49:00,,0819.3,5.03,0.00,22.1,20.9,00.0,30.9,23.8,06.0,0000.0,0005.05,0011.06,0004.10
2022-12-18 12:50:00,,0819.2,4.96,0.00,22.0,20.8,00.0,30.9,23.8,05.9,0000.0,0005.06,0011.42,0004.06
2022-12-18 12:51:00,,0819.4,5.03,0.00,22.0,20.6,00.0,30.9,23.8,05.9,0000.0,0005.05,0012.51,0004.02
2022-12-18 12:52:00,,0819.4,5.01,0.00,22.0,20.5,00.0,30.9,23.7,05.9,0000.0,0005.01,0013.10,0004.01
2022-12-18 12:53:00,,0819.4,4.95,0.00,22.0,20.4,00.0,30.8,23.7,05.9,0000.0,0004.96,0013.10,0003.99
2022-12-18 12:54:00,,0819.4,5.02,0.00,22.0,21.0,00.0,30.8,23.8,05.9,0000.0,0004.94,0013.32,0003.98
2022-12-18 12:55:00,,0819.4,4.97,0.00,22.1,22.1,00.0,30.8,24.1,05.9,0000.0,0004.92,0013.25,0003.98
2022-12-18 12:56:00,,0819.5,5.03,0.00,22.2,22.3,00.0,30.8,24.2,05.9,0000.0,0004.85,0013.05,0003.97
2022-12-18 12:57:00,,0819.4,4.96,0.00,22.2,21.9,00.0,30.9,24.1,06.0,0000.0,0004.85,0012.70,0003.98
2022-12-18 12:58:00,,0819.4,5.04,0.00,22.2,21.5,00.0,30.9,24.0,05.9,0000.0,0004.82,0012.42,0003.96
2022-12-18 12:59:00,,0819.4,4.96,0.00,22.2,21.2,00.0,30.9,24.0,05.9,0000.0,0004.84,0012.48,0003.95
